Location: Unspecified
(0.0000°N, 0.0000°E)
Time: 16:45:10
(UTC+00:00)

A-11 Canister half - Visible Passes

Search period start: 14 March 2026 00:00
Search period end: 24 March 2026 00:00
Orbit: 1513 x 1687 km, 47.2° (Epoch: 14 March)

Date Brightness Start Highest point End Pass type
(mag) Time Alt. Az. Time Alt. Az. Time Alt. Az.
16 Mar 10.9 21:04:07 10° N 21:05:18 14° N 21:05:18 14° N visible
17 Mar 10.7 20:41:18 10° N 20:43:54 17° N 20:43:54 17° N visible
18 Mar 10.4 20:18:30 10° N 20:22:34 20° NNE 20:22:34 20° NNE visible
19 Mar 10.3 19:55:45 10° N 20:01:19 22° NNE 20:01:19 22° NNE visible
19 Mar 11.0 21:58:17 10° NW 21:59:33 15° NW 21:59:33 15° NW visible
20 Mar 10.2 19:33:02 10° N 19:40:06 21° NE 19:40:07 21° NE visible
20 Mar 10.6 21:35:10 10° NW 21:38:22 24° NW 21:38:22 24° NW visible
21 Mar 10.2 19:10:23 10° N 19:16:58 19° NE 19:19:01 18° ENE visible
21 Mar 10.1 21:12:04 10° NW 21:17:16 36° NW 21:17:16 36° NW visible
22 Mar 10.4 18:47:47 10° N 18:53:49 17° NE 18:58:00 13° ENE visible
22 Mar 9.5 20:49:00 10° NW 20:56:15 54° NNW 20:56:15 54° NNW visible
23 Mar 10.5 18:25:16 10° NNE 18:30:40 15° NE 18:35:59 10° ENE visible
23 Mar 9.0 20:25:57 10° NW 20:35:18 75° N 20:35:18 75° N visible
